Location: Unspecified
(0.0000°N, 0.0000°E)
Time: 19:40:50
(UTC+00:00)

Vanguard 2 Rocket - Pass Details

Date: 08 October 2023
Orbit: 553 x 3312 km, 32.9° (Epoch: 28 November)

Event Time Altitude Azimuth Distance (km) Brightness Sun altitude
Rises 17:07:50 0° 296° (WNW) 7,251 12.6 9.9°
Reaches altitude 10° 17:13:09 10° 292° (WNW) 6,089 12.4 8.6°
Maximum altitude 17:30:45 55° 219° (SW) 2,743 9.8 4.2°
Drops below altitude 10° 17:41:36 10° 143° (SE) 3,899 9.8 1.5°
Sets 17:44:15 0° 138° (SE) 4,579 10.1 0.8°
